User: anonymous   Login
Location: Frydek-Mistek
(49.6830°N, 18.3330°E)
Time: 15:31:07
(UTC+02:00)
Language:

Courier 1B Rocket - Orbit

View from above orbital plane
View from above orbital plane
View from above satellite
View from above satellite

Ground track
Ground track

The orbit data is extracted from the following two-line orbital elements,

1 00059U 60013B   15209.50095009  .00000090  00000-0  64085-5 0  9996
2 00059 028.2491 031.9259 0189180 056.6836 305.1674 13.52924612705072
Epoch (UTC): 28 July 2015 12:01:22
Eccentricity: 0.0189180
inclination: 28.2491°
perigee height: 921 km
apogee height: 1202 km
right ascension of ascending node: 31.9259°
argument of perigee: 56.6836°
revolutions per day: 13.52924612
mean anomaly at epoch: 305.1674°
orbit number at epoch: 70507

The dashed part of the orbit path shows where the satellite is in the earth's shadow,  

DLR